HORIZONS-2

Last updated on Tue Sep 16 2025 00:02:46 GMT+0000 (Coordinated Universal Time)

1 32388U 07063B 25258.56992922 -.00000270 00000+0 00000+0 0 9994 2 32388 1.8883 84.0364 0002194 133.8228 268.3090 1.00270977 65060
UTC large
Height (km)
Speed (km/s)
/
Latitude / Longitude
Inclination (degrees)
Orbital Period (minutes)
Azimuth
Elevation
Range (km)
Doppler Factor

Next 0 passes for location: London (51.5072 / 0.1276)

Sorry there are no passes over London.